CZ-4B R/B

Satellite information

Favourite Embed

Satellite Type and Status

ROCKET BODYIN ORBIT

Key statistics

Satellite CZ-4B R/B at a glance.

Uptime

7872

Days in orbit

Revolutions

≈ 14.5

Per day

Orbit

SSO

Sun Synchronous Orbit

Inclination

98.7

Latest

Satellite identification and parameters

Extended collection of information and parameters for CZ-4B R/B.

Object identification

Identified? True

Debris? False

Object name: CZ-4B R/B

International designator: 2003-049C

Object number (NORAD): 28059

Object ID (CCSDS): 28059

Country: PEOPLES REPUBLIC OF CHINA (PRC)

Current information (Y/N): Y

RCS size: LARGE

Orbital parameters

Period: 98.993 minutes

Inclination: 98.6573 deg

SMA: 7088.636 km

Apoapsis: 745.733 km

Periapsis: 675.269 km

RAAN: 108.5349 deg

Eccentricy: 0.0049702

Argument of periapsis: 79.2272 deg

Mean anomaly: 281.4513 deg

Mean motion: 14.54650867 rev/day

Mean motion (dot): 0.00000526 rev/day2

B* drag term: 0.00013289 1/REarth

Two-line elements (TLE)

Creation date: May 10, 2025, 2:32 a.m.

Reference frame: TEME

Reference center: EARTH

Epoch: May 9, 2025, 8:53 p.m. UTC

TLE line 0: 0 CZ-4B R/B

TLE line 1: 1 28059U 03049C 25129.87034685 .00000526 00000-0 13289-3 0 9999

TLE line 2: 2 28059 98.6573 108.5349 0049702 79.2272 281.4513 14.54650867142428

Live tracking on map

Real-time ground track for satellite CZ-4B R/B.

In-orbit conjunctions

A list of the most updated potential collisions computed for object CZ-4B R/B.

Target Orbit TCA Probability of collision Miss distance Type
DELTA 1 DEB SSO 2024-12-13 21:49:29 0.0004283221 346.0 (m) DEBRIS
FENGYUN 1C DEB SSO 2024-12-09 04:43:45 0.0001446308 475.0 (m) DEBRIS
NOAA 16 DEB SSO 2024-07-22 20:46:19 0.0001486641 287.0 (m) DEBRIS

Associated space launch

The satellite is China's first operational civilian remote-sensing satellite, specifically designed for the Chinese Ministry of Land and Resources (MLR).

CZ-4B R/B was lifted into orbit during the mission ‘Long March 4B | Zi Yuan 1-2’, on board a Long March 4B space rocket.

The launch took place on Oct. 21, 2003, 3:16 a.m. from Launch Complex 7.

For more information about the launch, click the button.

Launch to space Long March 4B | Zi Yuan 1-2
Long March 4B | Zi Yuan 1-2

Agency: N/A

Status: Launch Successful

Launch date: Oct. 21, 2003, 3:16 a.m. UTC

Rocket: Long March 4B

Launch pad: Launch Complex 7

Location: Taiyuan Satellite Launch Center, People's Republic of China

...

Latest news about this satellite

There are no fresh news available about this satellite. Check back as we update our databases every day.


Newsletter sign-up

Weekly statistics, charts and insights to help you stay on top of the space industry.